Hourly Data Report for October 06, 2016

All times are specified in Local Standard Time (LST). Add 1 hour to adjust for Daylight Saving Time where and when it is observed.

QIKIQTARJUAQ A
NUNAVUT

67°32'48.000" N
64°01'54.000" W
5.50 m
2400577
YVM

Download Data

Hourly Data (October 2016)
Hourly Data Report for October 6, 2016
Temp Definition
°C
Dew Point Temp Definition
°C
Rel Hum Definition
%
Wind Dir Definition
10's deg

Wind Spd Definition
km/h
Visibility Definition
km
Stn Press Definition
kPa
Hmdx Definition


Wind Chill Definition


Weather Definition


TIME
00:00 Legend Double Dagger 1.5 -0.5 86 35 30 16.1 100.37     Rain
01:00 Legend Double Dagger 1.4 -1.0 84 35 37 16.1 100.45     Rain
02:00 Legend Double Dagger 1.1 -1.4 83 36 37 16.1 100.54     LegendNANA
03:00 Legend Double Dagger 0.7 -1.7 84 35 22 16.1 100.58     Rain
04:00 Legend Double Dagger 0.6 -1.6 85 36 41 14.5 100.61     LegendNANA
05:00 Legend Double Dagger 0.7 -2.2 81 35 32 16.1 100.62     LegendNANA
06:00 Legend Double Dagger 0.5 -1.9 84 36 30 16.1 100.68     LegendNANA
07:00 Legend Double Dagger 0.5 -2.3 81 33 18 16.1 100.73     LegendNANA
08:00 Legend Double Dagger 0.6 -2.4 80 34 18 14.5 100.77     LegendNANA
09:00 Legend Double Dagger 0.7 -2.8 78 34 18 16.1 100.81     LegendNANA
10:00 Legend Double Dagger 1.0 -2.7 76 35 26 16.1 100.79     LegendNANA
11:00 Legend Double Dagger 1.0 -3.1 74 36 18 16.1 100.79     LegendNANA
12:00 Legend Double Dagger 1.3 -3.3 72 36 15 16.1 100.79     LegendNANA
13:00 Legend Double Dagger 0.5 -3.8 73 32 18 16.1 100.82     LegendNANA
14:00 Legend Double Dagger 0.3 -3.7 74 33 18 16.1 100.83     LegendNANA
15:00 Legend Double Dagger 0.2 -3.3 77 31 13 16.1 100.87     LegendNANA
16:00 Legend Double Dagger 0.0 -3.9 75 33 13 16.1 100.89   -4 LegendNANA
17:00 Legend Double Dagger 0.0 -4.0 74 32 13 16.1 100.89   -4 LegendNANA
18:00 Legend Double Dagger -0.5 -3.8 78 14 5 16.1 100.92   -2 LegendNANA
19:00 Legend Double Dagger -0.2 -3.7 77 12 4 16.1 100.95   -1 LegendNANA
20:00 Legend Double Dagger -0.4 -2.9 83 14 5 16.1 101.00   -2 LegendNANA
21:00 Legend Double Dagger -0.6 -2.9 85 14 8 16.1 101.02   -3 LegendNANA
22:00 Legend Double Dagger -0.4 -3.2 82 8 5 16.1 101.02   -2 LegendNANA
23:00 Legend Double Dagger -0.7 -3.5 81 15 9 16.1 101.06   -4 LegendNANA

Notes on Data Quality.

Legend

  • E = Estimated
  • M = Missing
  • NA = Not Available
  • ‡ = Partner data that is not subject to review by the National Climate Archives
Date modified: